Gulkana, AK

11:36 AM AKDT on July 22, 2017 (GMT -0800)
Gulkana

Weather History for PAGK - February, 2013

Change the Weather History Date:

Tuesday, February 5, 2013

  Actual Average Record
Temperature  
Mean Temperature 4 °F -  
Max Temperature 14 °F 12 °F 41 °F (1976)
Min Temperature -7 °F -4 °F -48 °F (1968)
Degree Days  
Heating Degree Days 62    
Moisture  
Dew Point 0 °F    
Average Humidity 87    
Maximum Humidity 96    
Minimum Humidity 74    
Precipitation  
Precipitation 0.00 in - - ()
Snow  
Snow 0.00 in - - ()
Snow Depth 8.00 in    
Sea Level Pressure  
Sea Level Pressure 29.66 in    
Wind  
Wind Speed 3 mph (NNW)    
Max Wind Speed 8 mph    
Max Gust Speed -    
Visibility 6 miles    
Events Fog    
Averages and records for this station are not official NWS values.
T = Trace of Precipitation, MM = Missing Value Source: NWS Daily Summary

Daily Weather History Graph

Daily Weather History Graph

Search for Another Location

Airport or City:

Trip Planner

Search our weather history database for the weather conditions in past years. The results will help you decide how hot, cold, wet, or windy it might be!

Date:

Astronomy

Feb. 05, 2013 Rise Set
Actual Time 8:55 AM AKST 4:56 PM AKST
Civil Twilight 8:05 AM AKST 5:47 PM AKST
Nautical Twilight 7:12 AM AKST 6:40 PM AKST
Astronomical Twilight 6:20 AM AKST 7:32 PM AKST
Moon 5:30 AM AKST (2/5) 11:39 AM AKST (2/5)
Length of Visible Light 9h 41m
Length of Day
8h 01m
Waning Crescent, 25% of the Moon is Illuminated
Feb 5
Waning Crescent
Feb 9
New
Feb 17
First Quarter
Feb 25
Full
Mar 4
Last Quarter

Hourly Weather History & Observations

Time (AKST) Temp. Windchill Dew Point Humidity Pressure Visibility Wind Dir Wind Speed Gust Speed Precip Events Conditions
12:53 AM 10.0 °F -1.9 °F 8.1 °F 92% 29.75 in 10.0 mi North 8.1 mph - N/A   Clear
1:53 AM 10.0 °F 0.4 °F 7.0 °F 87% 29.74 in 10.0 mi North 5.8 mph - N/A   Clear
3:53 AM 3.0 °F -4.4 °F 1.0 °F 91% 29.73 in 10.0 mi WNW 3.5 mph - N/A   Clear
4:53 AM -0.0 °F -7.9 °F -4.0 °F 83% 29.73 in 10.0 mi WNW 3.5 mph - N/A   Clear
5:53 AM -4.0 °F - -7.1 °F 87% 29.74 in 10.0 mi Calm Calm - N/A   Partly Cloudy
6:53 AM -6.0 °F -14.7 °F -9.9 °F 83% 29.75 in 10.0 mi NNW 3.5 mph - N/A   Partly Cloudy
7:53 AM -5.1 °F - -9.0 °F 83% 29.74 in 10.0 mi Calm Calm - N/A   Partly Cloudy
8:53 AM -6.0 °F -14.7 °F -9.9 °F 83% 29.74 in 10.0 mi North 3.5 mph - N/A   Scattered Clouds
9:46 AM -0.9 °F - -5.1 °F 83% 29.58 in 10.0 mi Calm Calm - N/A   Overcast
9:53 AM -0.0 °F - -4.0 °F 83% 29.73 in 10.0 mi Calm Calm - N/A   Overcast
9:59 AM -0.0 °F - -4.0 °F 83% 29.57 in 10.0 mi Calm Calm - N/A   Overcast
10:53 AM 6.1 °F - 1.9 °F 83% 29.73 in 10.0 mi Calm Calm - N/A   Overcast
11:09 AM 6.1 °F - 3.9 °F 91% 29.57 in 1.0 mi Calm Calm - 0.00 in   Mist
11:20 AM 7.0 °F - 5.0 °F 92% 29.57 in 0.5 mi Calm Calm - 0.00 in Fog Light Freezing Fog
11:53 AM 6.1 °F - 5.0 °F 95% 29.73 in 0.2 mi Calm Calm - 0.00 in Fog Light Freezing Fog
12:18 PM 8.1 °F - 7.0 °F 95% 29.56 in 1.0 mi Calm Calm - N/A   Overcast
12:30 PM 10.0 °F - 7.0 °F 87% 29.56 in 3.0 mi Calm Calm - N/A   Overcast
12:53 PM 7.0 °F - 6.1 °F 96% 29.71 in 3.0 mi Calm Calm - N/A   Overcast
1:42 PM 9.0 °F - 7.0 °F 92% 29.56 in 2.0 mi Calm Calm - N/A   Overcast
1:53 PM 8.1 °F - 7.0 °F 95% 29.70 in 2.0 mi Calm Calm - N/A   Overcast
2:48 PM 8.6 °F - 6.8 °F 92% 29.55 in 4.0 mi Calm Calm - N/A   Overcast
2:53 PM 8.1 °F - 7.0 °F 95% 29.70 in 5.0 mi Calm Calm - N/A   Overcast
3:53 PM 9.0 °F - 6.1 °F 88% 29.69 in 10.0 mi Calm Calm - N/A   Mostly Cloudy
4:53 PM 5.0 °F - 1.9 °F 87% 29.70 in 10.0 mi Calm Calm - N/A   Mostly Cloudy
5:53 PM 1.9 °F - -0.9 °F 88% 29.70 in 10.0 mi Calm Calm - N/A   Mostly Cloudy
6:53 PM -0.9 °F - -5.1 °F 83% 29.71 in 3.0 mi Calm Calm - N/A   Mostly Cloudy
7:53 PM -4.0 °F - -8.0 °F 83% 29.71 in 3.0 mi Calm Calm - N/A   Overcast
8:53 PM -2.0 °F -10.1 °F -6.0 °F 83% 29.70 in 2.0 mi WNW 3.5 mph - N/A   Overcast
9:27 PM 1.0 °F - -2.0 °F 87% 29.51 in 1.0 mi Calm Calm - N/A   Overcast
9:39 PM 1.9 °F - -0.9 °F 88% 29.51 in 1.0 mi Calm Calm - N/A   Unknown
9:53 PM 1.9 °F -5.6 °F -0.9 °F 88% 29.69 in 1.0 mi NNW 3.5 mph - N/A   Unknown
10:00 PM 3.0 °F -4.4 °F -0.0 °F 87% 29.51 in 0.8 mi NW 3.5 mph - N/A   Unknown
10:30 PM 3.0 °F - 1.0 °F 91% 29.51 in 1.0 mi Calm Calm - N/A   Unknown
10:53 PM 3.9 °F -3.4 °F 1.0 °F 88% 29.68 in 1.8 mi North 3.5 mph - N/A   Overcast
11:15 PM 5.0 °F -2.1 °F 1.9 °F 87% 29.51 in 2.0 mi North 3.5 mph - N/A   Overcast
11:32 PM 5.0 °F -2.1 °F 1.9 °F 87% 29.51 in 7.0 mi North 3.5 mph - N/A   Overcast
11:53 PM 5.0 °F - 1.9 °F 87% 29.68 in 10.0 mi Calm Calm - N/A   Overcast